Change the Weather History Date:

Monday, April 21, 2014

  Actual Average (KTOL) Record (KTOL)
Temperature  
Mean Temperature 62 °F 52 °F  
Max Temperature 79 °F 62 °F 87 °F (1987)
Min Temperature 44 °F 41 °F 22 °F (1875)
Degree Days  
Heating Degree Days 4 14  
Month to date heating degree days 367  
Since 1 July heating degree days 5793  
Cooling Degree Days 0 0  
Month to date cooling degree days 0  
Year to date cooling degree days 0  
Growing Degree Days 12 (Base 50)    
Moisture  
Dew Point 46 °F    
Average Humidity 58    
Maximum Humidity 93    
Minimum Humidity 30    
Precipitation  
Precipitation 0.00 in 0.12 in 0.63 in (1967)
Month to date precipitation 2.25  
Year to date precipitation 8.85  
Snow  
Snow 0.00 in 0.00 in - ()
Month to date snowfall 1.2  
Since 1 July snowfall 37.4  
Snow Depth -    
Sea Level Pressure  
Sea Level Pressure 29.94 in    
Wind  
Wind Speed 6 mph (SW)    
Max Wind Speed 17 mph    
Max Gust Speed -    
Visibility 10 miles    
Events Rain    
T = Trace of Precipitation, MM = Missing Value Source: NWS Daily Summary

Daily Weather History Graph

Daily Weather History Graph

Search for Another Location

Airport or City:

Trip Planner

Search our weather history database for the weather conditions in past years. The results will help you decide how hot, cold, wet, or windy it might be!

Date:

Astronomy

Apr. 21, 2014 Rise Set
Actual Time 6:42 AM EDT 8:18 PM EDT
Civil Twilight 6:13 AM EDT 8:47 PM EDT
Nautical Twilight 5:38 AM EDT 9:23 PM EDT
Astronomical Twilight 5:00 AM EDT 10:01 PM EDT
Moon 1:48 AM EDT (4/21) 12:06 PM EDT (4/21)
Length of Visible Light 14h 34m
Length of Day
13h 35m
Waning Gibbous, 58% of the Moon is Illuminated
Apr 21
Waning Gibbous
Apr 22
Last Quarter
Apr 29
New
May 6
First Quarter
May 14
Full

Hourly Weather History & Observations

Time (EDT) Temp. Windchill Dew Point Humidity Pressure Visibility Wind Dir Wind Speed Gust Speed Precip Events Conditions
12:13 AM 48.2 °F - 39.2 °F 71% 30.09 in 10.0 mi SE 4.6 mph - N/A   Clear
12:34 AM 48.2 °F - 42.8 °F 82% 30.09 in 10.0 mi SE 3.5 mph - N/A   Clear
12:53 AM 45.9 °F 43.6 °F 41.0 °F 83% 30.09 in 10.0 mi SE 4.6 mph - N/A   Clear
1:13 AM 44.6 °F 43.1 °F 42.8 °F 93% 30.08 in 10.0 mi SE 3.5 mph - N/A   Clear
1:34 AM 46.4 °F - 42.8 °F 87% 30.08 in 10.0 mi Calm Calm - N/A   Clear
1:53 AM 46.9 °F - 43.9 °F 89% 30.08 in 10.0 mi Calm Calm - N/A   Clear
2:14 AM 46.4 °F 45.2 °F 42.8 °F 87% 30.07 in 10.0 mi SSE 3.5 mph - N/A   Clear
2:33 AM 46.4 °F 45.2 °F 42.8 °F 87% 30.06 in 10.0 mi SSE 3.5 mph - N/A   Clear
2:53 AM 45.0 °F 43.5 °F 41.9 °F 89% 30.06 in 10.0 mi SSE 3.5 mph - N/A   Clear
3:14 AM 46.4 °F 45.2 °F 44.6 °F 93% 30.05 in 10.0 mi SSE 3.5 mph - N/A   Clear
3:33 AM 46.4 °F - 44.6 °F 93% 30.04 in 10.0 mi Calm Calm - N/A   Clear
3:53 AM 45.9 °F - 43.9 °F 93% 30.04 in 10.0 mi Calm Calm - N/A   Clear
4:13 AM 44.6 °F 42.2 °F 42.8 °F 93% 30.04 in 10.0 mi South 4.6 mph - N/A   Clear
4:33 AM 46.4 °F 45.2 °F 44.6 °F 93% 30.04 in 10.0 mi South 3.5 mph - N/A   Clear
4:54 AM 45.9 °F - 43.0 °F 90% 30.04 in 10.0 mi Calm Calm - N/A   Clear
5:13 AM 46.4 °F - 44.6 °F 93% 30.04 in 10.0 mi Calm Calm - N/A   Clear
5:33 AM 46.4 °F - 42.8 °F 87% 30.03 in 10.0 mi Calm Calm - N/A   Clear
5:54 AM 46.9 °F - 41.9 °F 83% 30.03 in 10.0 mi Calm Calm - N/A   Clear
6:13 AM 46.4 °F 45.2 °F 42.8 °F 87% 30.03 in 10.0 mi South 3.5 mph - N/A   Clear
6:33 AM 48.2 °F - 42.8 °F 82% 30.03 in 10.0 mi South 3.5 mph - N/A   Clear
6:54 AM 47.8 °F - 41.9 °F 80% 30.03 in 10.0 mi South 3.5 mph - N/A   Clear
7:13 AM 48.2 °F - 42.8 °F 82% 30.04 in 10.0 mi South 3.5 mph - N/A   Clear
7:33 AM 50.0 °F - 44.6 °F 82% 30.03 in 10.0 mi SSW 4.6 mph - N/A   Clear
7:54 AM 54.9 °F - 45.9 °F 72% 30.03 in 10.0 mi Calm Calm - N/A   Clear
8:13 AM 59.0 °F - 46.4 °F 63% 30.03 in 10.0 mi SSW 3.5 mph - N/A   Clear
8:33 AM 60.8 °F - 46.4 °F 59% 30.02 in 10.0 mi SSW 4.6 mph - N/A   Clear
8:54 AM 61.9 °F - 45.0 °F 54% 30.02 in 10.0 mi SSW 8.1 mph - N/A   Clear
9:13 AM 62.6 °F - 44.6 °F 52% 30.02 in 10.0 mi SW 5.8 mph - N/A   Clear
9:33 AM 64.4 °F - 46.4 °F 52% 30.01 in 10.0 mi SW 5.8 mph - N/A   Clear
9:54 AM 64.9 °F - 45.9 °F 50% 30.00 in 10.0 mi SW 8.1 mph - N/A   Clear
10:13 AM 66.2 °F - 46.4 °F 49% 30.00 in 10.0 mi SW 5.8 mph - N/A   Clear
10:33 AM 69.8 °F - 46.4 °F 43% 30.00 in 10.0 mi SW 8.1 mph - N/A   Clear
10:54 AM 68.0 °F - 45.9 °F 45% 30.00 in 10.0 mi SW 8.1 mph - N/A   Clear
11:13 AM 69.8 °F - 46.4 °F 43% 29.99 in 10.0 mi WSW 6.9 mph - N/A   Clear
11:33 AM 71.6 °F - 46.4 °F 41% 29.98 in 10.0 mi SW 5.8 mph - N/A   Clear
11:54 AM 72.9 °F - 45.9 °F 38% 29.97 in 10.0 mi SW 8.1 mph - N/A   Clear
12:13 PM 73.4 °F - 44.6 °F 36% 29.96 in 10.0 mi SW 8.1 mph - N/A   Clear
12:33 PM 75.2 °F - 44.6 °F 34% 29.96 in 10.0 mi WSW 9.2 mph - N/A   Clear
12:54 PM 74.8 °F - 45.0 °F 34% 29.95 in 10.0 mi WSW 10.4 mph - N/A   Clear
1:13 PM 75.2 °F - 46.4 °F 36% 29.94 in 10.0 mi WSW 9.2 mph - N/A   Clear
1:34 PM 75.2 °F - 44.6 °F 34% 29.93 in 10.0 mi SW 10.4 mph - N/A   Clear
1:53 PM 75.9 °F - 45.9 °F 34% 29.92 in 10.0 mi WSW 10.4 mph - N/A   Clear
2:13 PM 77.0 °F - 44.6 °F 32% 29.91 in 10.0 mi WSW 9.2 mph - N/A   Clear
2:53 PM 79.0 °F - 45.0 °F 30% 29.89 in 10.0 mi WSW 12.7 mph - N/A   Clear
3:13 PM 78.8 °F - 44.6 °F 30% 29.89 in 10.0 mi SW 12.7 mph - N/A   Clear
3:34 PM 77.0 °F - 46.4 °F 34% 29.88 in 10.0 mi WSW 11.5 mph - N/A   Clear
3:53 PM 77.9 °F - 46.9 °F 33% 29.87 in 10.0 mi SW 10.4 mph - N/A   Clear
4:13 PM 78.8 °F - 46.4 °F 32% 29.86 in 10.0 mi WSW 11.5 mph - N/A   Clear
4:34 PM 77.0 °F - 44.6 °F 32% 29.85 in 10.0 mi WSW 11.5 mph - N/A   Clear
4:53 PM 77.0 °F - 45.0 °F 32% 29.85 in 10.0 mi SW 17.3 mph - N/A   Clear
5:13 PM 78.8 °F - 44.6 °F 30% 29.84 in 10.0 mi WSW 11.5 mph - N/A   Clear
5:34 PM 77.0 °F - 44.6 °F 32% 29.83 in 10.0 mi WSW 15.0 mph - N/A   Clear
5:53 PM 75.9 °F - 45.0 °F 33% 29.83 in 10.0 mi SW 13.8 mph - N/A   Clear
6:13 PM 75.2 °F - 46.4 °F 36% 29.82 in 10.0 mi SW 9.2 mph - N/A   Clear
6:34 PM 75.2 °F - 46.4 °F 36% 29.81 in 10.0 mi SW 9.2 mph - N/A   Clear
6:53 PM 73.9 °F - 47.8 °F 40% 29.81 in 10.0 mi SW 9.2 mph - N/A   Clear
7:13 PM 73.4 °F - 48.2 °F 41% 29.80 in 10.0 mi SW 6.9 mph - N/A   Clear
7:34 PM 71.6 °F - 48.2 °F 43% 29.80 in 10.0 mi SW 6.9 mph - N/A   Clear
7:53 PM 72.0 °F - 47.8 °F 42% 29.79 in 10.0 mi SSW 5.8 mph - N/A   Clear
8:13 PM 71.6 °F - 48.2 °F 43% 29.79 in 10.0 mi SSW 6.9 mph - N/A   Clear
8:33 PM 71.6 °F - 48.2 °F 43% 29.79 in 10.0 mi SW 9.2 mph - N/A   Clear
8:53 PM 70.0 °F - 50.0 °F 49% 29.80 in 10.0 mi SSW 8.1 mph - N/A   Clear
9:13 PM 69.8 °F - 50.0 °F 49% 29.80 in 10.0 mi SW 12.7 mph - N/A   Partly Cloudy
9:33 PM 69.8 °F - 50.0 °F 49% 29.80 in 10.0 mi SW 13.8 mph - N/A   Mostly Cloudy
9:54 PM 69.8 °F - 50.0 °F 49% 29.80 in 10.0 mi SW 16.1 mph - N/A   Scattered Clouds
10:13 PM 68.0 °F - 51.8 °F 56% 29.80 in 10.0 mi SSW 13.8 mph - N/A   Scattered Clouds
10:33 PM 66.2 °F - 51.8 °F 60% - 10.0 mi SSW 16.1 mph - N/A Rain Light Rain
10:53 PM 66.2 °F - 51.8 °F 60% 29.79 in 10.0 mi SSW 11.5 mph - N/A   Overcast
11:13 PM 66.2 °F - 51.8 °F 60% 29.78 in 10.0 mi SW 12.7 mph - N/A   Overcast
11:34 PM 66.2 °F - 51.8 °F 60% 29.79 in 10.0 mi SW 10.4 mph - N/A   Mostly Cloudy
11:53 PM 65.8 °F - 52.9 °F 63% 29.78 in 10.0 mi West 8.1 mph - N/A   Clear